Regional Weather Roundup
Issued by NWS

Home | Current Version | Previous Version | Graphics & Text | Print | Product List | Glossary On
Versions: 1 2 3 4 5 6 7 8 9 10 11 12 13 14 15 16 17 18 19 20 21 22 23 24 25 26 27 28 29 30 31 32 33 34 35 36 37 38 39 40 41 42 43 44 45 46 47 48 49 50
000
ASUS43 KFSD 261402
RWRSD

WEATHER ROUNDUP FOR SOUTH DAKOTA
NATIONAL WEATHER SERVICE SIOUX FALLS SD
900 AM CDT FRI MAY 26 2017

NOTE: "FAIR" INDICATES FEW OR NO CLOUDS BELOW 12,000 FEET WITH NO
SIGNIFICANT WEATHER AND/OR OBSTRUCTIONS TO VISIBILITY.


SDZ001>005-009-010-012>017-261500-
NORTHWEST AND NORTH CENTRAL SOUTH DAKOTA

CITY           SKY/WX    TMP DP  RH WIND       PRES   REMARKS
BUFFALO          N/A     53  37  54 NW23G29   29.81R
FAITH            N/A     54  39  57 NW24G30   29.85S
MOBRIDGE       MOSUNNY   56  40  55 NW20G25   29.77S
$$

SDZ012>016-024>037-041>051-057-063-072>074-261500-
SOUTHWEST AND SOUTH CENTRAL SOUTH DAKOTA

CITY           SKY/WX    TMP DP  RH WIND       PRES   REMARKS
RAPID CTY ARPT SUNNY     57  35  43 N7        29.90S
PIERRE         SUNNY     57  40  52 NW20G28   29.83R
CUSTER         CLOUDY    45  26  47 CALM      29.93S
ELLSWORTH AFB  SUNNY     57  33  41 N14       29.89S
PHILIP         SUNNY     58  40  51 NW15      29.88S
PINE RIDGE     SUNNY     52  43  71 W3        29.93S
WINNER         FAIR      58  44  60 NW15      29.88R
$$

SDZ004>011-016>023-039-040-261500-
NORTHEAST SOUTH DAKOTA

CITY           SKY/WX    TMP DP  RH WIND       PRES   REMARKS
ABERDEEN       SUNNY     59  42  53 W20G26    29.76R
WATERTOWN      SUNNY     56  48  74 NW12      29.76R
BROOKINGS      MOSUNNY   57  49  74 NW12      29.77R
SISSETON         N/A     62  49  62 NW9       29.71R
$$

SDZ017-020-022-023-036>040-048>070-261500-
SOUTHEAST SOUTH DAKOTA

CITY           SKY/WX    TMP DP  RH WIND       PRES   REMARKS
SIOUX FALLS    CLOUDY    60  50  69 NW15      29.78R
HURON          SUNNY     59  46  62 NW16      29.80R
CHAMBERLAIN    SUNNY     60  45  59 W13       29.86R
MITCHELL       SUNNY     60  46  59 NW13      29.82R
YANKTON          N/A     59  48  67 NW16G23   29.81R
$$

ABBREVIATIONS USED IN REMARKS
   TC - TEMPERATURE IN CELSIUS
  WCI - WIND CHILL INDEX
   HX - HEAT INDEX
  VSB - VISIBILITY




USA.gov is the U.S. government's official web portal to all federal, state and local government web resources and services.